Date String (YYYY-MM-DD hh:mm:ss) UTC,Instrument flags,Ambient pressure (hPa),Sample flow (lpm),Bypass flow (lpm),Sample temperature (°C),Ambient temperature (°C),ASC tube jacket temperature (°C),LED temperature (°C),Box temperature (°C),Sample RH (%),Span deviation,Mass concentration (μg/m³),Mass concentration (μg/m³),Mass concentration (μg/m³)
DateTimeUTC,F1_M11,P_M11,Q1_M11,Q2_M11,T1_M11,T2_M11,T3_M11,T4_M11,T5_M11,U1_M11,ZSPAN_M11,X0_M11,X2_M11,X1_M11
2022-01-28 15:00:00,,0835.2,4.99,0.00,22.4,23.0,00.0,31.2,24.3,04.6,0000.0,0001.86,0000.98,0000.87
2022-01-28 15:01:00,,0835.1,5.00,0.00,22.4,22.7,00.0,31.2,24.2,04.6,0000.0,0001.89,0000.99,0000.88
2022-01-28 15:02:00,,0835.2,5.00,0.00,22.3,22.5,00.0,31.2,24.1,04.6,0000.0,0001.91,0001.00,0000.87
2022-01-28 15:03:00,,0835.2,5.00,0.00,22.3,22.2,00.0,31.2,24.0,04.7,0000.0,0001.97,0001.03,0000.89
2022-01-28 15:04:00,,0835.2,5.01,0.00,22.3,22.1,00.0,31.2,24.0,04.7,0000.0,0001.99,0001.03,0000.90
2022-01-28 15:05:00,,0835.2,5.01,0.00,22.3,21.9,00.0,31.2,24.0,04.7,0000.0,0002.04,0001.06,0000.91
2022-01-28 15:06:00,,0835.2,5.01,0.00,22.2,21.8,00.0,31.2,23.9,04.7,0000.0,0002.00,0001.05,0000.91
2022-01-28 15:07:00,,0835.3,5.01,0.00,22.2,21.8,00.0,31.2,23.9,04.6,0000.0,0001.99,0001.04,0000.91
2022-01-28 15:08:00,,0835.2,4.98,0.00,22.2,21.7,00.0,31.2,23.9,04.7,0000.0,0001.96,0001.05,0000.91
2022-01-28 15:09:00,,0835.2,5.01,0.00,22.2,21.6,00.0,31.2,23.9,04.7,0000.0,0002.76,0001.07,0000.91
2022-01-28 15:10:00,,0835.2,5.00,0.00,22.2,21.6,00.0,31.2,23.9,04.7,0000.0,0002.89,0001.07,0000.92
2022-01-28 15:11:00,,0835.2,5.01,0.00,22.2,21.6,00.0,31.2,23.8,04.8,0000.0,0002.87,0001.06,0000.92
2022-01-28 15:12:00,,0835.2,4.99,0.00,22.1,21.5,00.0,31.2,23.8,05.0,0000.0,0002.82,0001.04,0000.91
2022-01-28 15:13:00,,0835.2,5.00,0.00,22.1,21.5,00.0,31.2,23.7,05.0,0000.0,0002.87,0001.07,0000.91
2022-01-28 15:14:00,,0835.2,5.01,0.00,22.0,21.4,00.0,31.1,23.6,05.1,0000.0,0002.82,0001.05,0000.90
2022-01-28 15:15:00,,0835.3,5.00,0.00,22.1,22.0,00.0,31.1,23.8,05.2,0000.0,0002.78,0001.03,0000.88
2022-01-28 15:16:00,,0835.3,5.00,0.00,22.3,23.1,00.0,31.2,24.2,05.1,0000.0,0002.77,0001.00,0000.86
2022-01-28 15:17:00,,0835.3,5.00,0.00,22.4,23.4,00.0,31.2,24.3,04.9,0000.0,0003.30,0000.98,0000.84
2022-01-28 15:18:00,,0835.3,5.01,0.00,22.4,23.0,00.0,31.2,24.3,04.8,0000.0,0003.87,0000.97,0000.82
2022-01-28 15:19:00,,0835.3,4.98,0.00,22.4,22.7,00.0,31.3,24.2,04.9,0000.0,0003.83,0000.94,0000.80
2022-01-28 15:20:00,,0835.3,5.00,0.00,22.3,22.4,00.0,31.3,24.1,04.8,0000.0,0002.62,0000.91,0000.78
2022-01-28 15:21:00,,0835.2,5.01,0.00,22.3,22.2,00.0,31.3,24.0,04.8,0000.0,0002.38,0000.90,0000.75
2022-01-28 15:22:00,,0835.2,4.99,0.00,22.3,22.1,00.0,31.3,23.9,04.7,0000.0,0002.38,0000.89,0000.72
2022-01-28 15:23:00,,0835.2,5.00,0.00,22.3,21.9,00.0,31.3,23.9,04.8,0000.0,0002.35,0000.87,0000.70
2022-01-28 15:24:00,,0835.2,5.01,0.00,22.3,21.8,00.0,31.2,23.9,04.9,0000.0,0002.28,0000.82,0000.68
2022-01-28 15:25:00,,0835.2,5.00,0.00,22.2,21.7,00.0,31.2,23.9,04.8,0000.0,0002.29,0000.81,0000.66
2022-01-28 15:26:00,,0835.2,5.00,0.00,22.2,21.7,00.0,31.2,23.8,04.7,0000.0,0002.31,0000.81,0000.64
2022-01-28 15:27:00,,0835.2,5.00,0.00,22.2,21.6,00.0,31.2,23.8,04.8,0000.0,0002.24,0000.77,0000.61
2022-01-28 15:28:00,,0835.2,5.00,0.00,22.1,21.5,00.0,31.2,23.8,04.7,0000.0,0003.30,0000.75,0000.59
2022-01-28 15:29:00,,0835.3,5.00,0.00,22.1,21.5,00.0,31.2,23.7,04.7,0000.0,0002.49,0000.75,0000.59
2022-01-28 15:30:00,,0835.3,4.98,0.00,22.1,21.5,00.0,31.2,23.7,05.1,0000.0,0002.54,0000.76,0000.58
2022-01-28 15:31:00,,0835.3,5.00,0.00,22.1,21.4,00.0,31.2,23.7,05.2,0000.0,0002.59,0000.77,0000.58
2022-01-28 15:32:00,,0835.3,5.01,0.00,22.1,21.4,00.0,31.1,23.7,05.2,0000.0,0002.56,0000.75,0000.58
2022-01-28 15:33:00,,0835.2,5.01,0.00,22.0,21.4,00.0,31.1,23.6,05.2,0000.0,0002.50,0000.73,0000.57
2022-01-28 15:34:00,,0835.2,4.99,0.00,22.1,21.9,00.0,31.1,23.8,05.1,0000.0,0002.47,0000.70,0000.56
2022-01-28 15:35:00,,0835.3,5.00,0.00,22.2,23.1,00.0,31.2,24.2,04.9,0000.0,0002.51,0000.71,0000.56
2022-01-28 15:36:00,,0835.3,5.01,0.00,22.4,23.7,00.0,31.2,24.4,05.0,0000.0,0002.54,0000.73,0000.56
2022-01-28 15:37:00,,0835.3,4.99,0.00,22.5,23.4,00.0,31.3,24.4,04.8,0000.0,0002.56,0000.73,0000.57
2022-01-28 15:38:00,,0835.3,5.01,0.00,22.5,23.1,00.0,31.3,24.4,04.9,0000.0,0002.63,0000.76,0000.59
2022-01-28 15:39:00,,0835.3,5.00,0.00,22.5,22.9,00.0,31.3,24.3,04.8,0000.0,0001.59,0000.78,0000.60
2022-01-28 15:40:00,,0835.4,5.00,0.00,22.5,22.7,00.0,31.3,24.3,04.7,0000.0,0001.23,0000.79,0000.60
2022-01-28 15:41:00,,0835.3,4.99,0.00,22.5,22.5,00.0,31.3,24.3,04.7,0000.0,0001.18,0000.77,0000.59
2022-01-28 15:42:00,,0835.4,4.99,0.00,22.5,22.4,00.0,31.4,24.3,04.7,0000.0,0001.12,0000.75,0000.60
2022-01-28 15:43:00,,0835.4,5.00,0.00,22.5,22.3,00.0,31.4,24.3,04.7,0000.0,0001.10,0000.75,0000.59
2022-01-28 15:44:00,,0835.4,5.01,0.00,22.5,22.2,00.0,31.4,24.3,04.7,0000.0,0001.10,0000.75,0000.59
2022-01-28 15:45:00,,0835.5,5.01,0.00,22.5,22.2,00.0,31.4,24.3,04.6,0000.0,0001.13,0000.77,0000.60
2022-01-28 15:46:00,,0835.5,5.01,0.00,22.5,22.1,00.0,31.4,24.3,05.1,0000.0,0001.09,0000.76,0000.60
2022-01-28 15:47:00,,0835.5,4.99,0.00,22.6,22.1,00.0,31.4,24.3,06.1,0000.0,0001.13,0000.79,0000.64
2022-01-28 15:48:00,,0835.5,5.00,0.00,22.6,22.1,00.0,31.4,24.3,06.0,0000.0,0001.26,0000.86,0000.71
2022-01-28 15:49:00,,0835.5,5.01,0.00,22.6,22.1,00.0,31.4,24.3,06.2,0000.0,0001.32,0000.92,0000.76
2022-01-28 15:50:00,,0835.5,5.01,0.00,22.6,22.1,00.0,31.4,24.4,05.8,0000.0,0001.33,0000.94,0000.80
2022-01-28 15:51:00,,0835.5,5.00,0.00,22.6,22.2,00.0,31.4,24.4,05.6,0000.0,0001.34,0000.96,0000.83
2022-01-28 15:52:00,,0835.5,4.99,0.00,22.6,22.2,00.0,31.4,24.4,05.5,0000.0,0001.36,0000.99,0000.86
2022-01-28 15:53:00,,0835.5,5.00,0.00,22.6,22.2,00.0,31.4,24.4,05.4,0000.0,0001.37,0001.00,0000.88
2022-01-28 15:54:00,,0835.5,5.01,0.00,22.6,22.2,00.0,31.5,24.4,05.4,0000.0,0001.39,0001.03,0000.91
2022-01-28 15:55:00,,0835.5,5.01,0.00,22.7,22.2,00.0,31.5,24.4,05.5,0000.0,0001.47,0001.08,0000.94
2022-01-28 15:56:00,,0835.5,4.99,0.00,22.7,22.2,00.0,31.5,24.5,05.7,0000.0,0001.54,0001.12,0000.98
2022-01-28 15:57:00,,0835.5,5.00,0.00,22.7,22.2,00.0,31.5,24.5,05.9,0000.0,0001.81,0001.21,0001.03
2022-01-28 15:58:00,,0835.5,5.01,0.00,22.7,22.2,00.0,31.5,24.5,05.6,0000.0,0001.84,0001.22,0001.02
2022-01-28 15:59:00,,0835.5,5.00,0.00,22.7,22.2,00.0,31.5,24.5,05.5,0000.0,0001.65,0001.17,0000.98
